DECAYED

STARLINK-1449, 45666 (Decayed)

Orbit data source: Space-Track

STARLINK-1449, 45666 was a payload satellite owned by SpaceX/Seattle (US) in LEO that was launched on Thu, 04 Jun 2020 UTC via an FALCON 9 launch vehicle from the Air Force Eastern Test Range (AFETR). Payload-class satellites include a variety of spacecraft equipped with specific instruments for various scientific and technological missions. These include communications satellites like Starlink; space stations such as the ISS; scientific satellites like the Hubble; Earth observation satellites from companies like Planet Labs, Umbra, and HawkEye 360; GPS; miniature CubeSats for education and research; and military/defense satellites.

Not visible in the next 10 days
Identifier
45666, 2020-035K
Orbit
Decayed
Country
Flag of USUS
Related business
Manufacturer
SpaceX/Seattle
Mission
Decayed Commercial Communications
Bus & Motor
STARLINK, Unknown motor
Mass
260 kg wet, ~248 kg dry
Launch date (UTC)
2020-06-04 (6 years ago)
Launch vehicle
FALCON 9
Launch site
Air Force Eastern Test Range (AFETR)
Object type
Payload
Rocket body
Debris
Shape & HBR
Box + 1 Pan, 10.1 m
Radar Cross Section
13.562 m², Large (>1 m²)

Expand to show TLE details & history
Last TLE update: 7 months ago

TLE from 7 months ago
0 STARLINK-1449
1 45666U 20035K   25127.80134976  .16123139  12607-4  34460-3 0  9998
2 45666  53.0110 255.6921 0004788 318.3624 164.9627 16.46558964273677
Epoch: 2025-05-07T19:13Z
TLE epoch observation values (Epoch: 2025-05-07T19:13:56.619Z)
Latitude
41.99999°
Longitude
-121.07631°
Altitude
155.406 km
Speed
7.817 km/s
True Right ascension
02h 13m 09s
True Declination
41° 48' 48"
Sunlit
Object was in daylight at epoch
Visualization orbit readout
Latitude
Unknown
Longitude
Unknown
Altitude
Unknown
Speed
Unknown
Apparent Right ascension
Unknown
Apparent Declination
Unknown
Sunlit
N/A
Visualization observer readout
Local Sidereal Time
02:14:07
Azimuth
Unknown
Elevation
Unknown
Doppler factor
Unknown
Orbital elements
Apogee altitude
151.832 km
Perigee altitude
145.582 km
Semi-major axis
6,526.844 km
Eccentricity
0.00048
Inclination
53.011°
RAAN
255.6921°
Arg. of periapsis
318.3624°
True anomaly
164.97693°
Mean anomaly
164.9627°
Eccentric anomaly
164.96981°
Mean motion
4.11612 °/min
Orbital period
87.46 mins
BSTAR
0.0003446
Loading maneuver chart data...
Computing Atmospheric mass density...
Loading historical data...
Loading historical data...
Loading historical data...
Loading historical data...
Loading historical data...
Loading historical data...
Loading historical data...

Documentation

Showing up to 5 results
|